Tracking 29892 objects as of 21-Nov-2024
HD Live streaming from Space Station
objects crossing your sky now

SL-14 R/B

Track SL-14 R/B now!
10-day predictions


NORAD ID: 23005
Int'l Code: 1994-011G
Perigee: 1,418.3 km
Apogee: 1,481.5 km
Inclination: 82.6 °
Period: 114.7 minutes
Semi major axis: 7820 km
RCS: 5.492 m2 (large)
Launch date: February 12, 1994
Source: Commonwealth of Independent States (former USSR) (CIS)
Launch site: PLESETSK MISSILE AND SPACE COMPLEX (PKMTR)

Note: This is a ROCKET BODY
Your satellite tracking list
Your tracking list is empty




NASA's NSSDC Master Catalog

Two Line Element Set (TLE):
1 23005U 94011G   24325.78704667  .00000033  00000-0  13989-3 0  9995
2 23005  82.5789  64.0411 0040393 316.9590 214.6335 12.55214514409815
Source of the keplerian elements: AFSPC